Skip Page Navigation
NASA JPL Caltech
NASA Logo - Jet Propulsion Laboratory + View the NASA Portal
+ Near-Earth Object (NEO) Program
Search JPL
JPL Home Earth Solar System Stars & Galaxies Technology
JPL Solar System Dynamics
BODIES ORBITS EPHEMERIDES TOOLS PHYSICAL DATA DISCOVERY FAQ SITE MAP
JPL Small-Body Database Browser
Search: [ help ]  
12324 Van Rompaey (1992 RS3)
Classification: Main-belt Asteroid          SPK-ID: 2012324
Ephemeris | Orbit Diagram | Orbital Elements | Physical Parameters | Discovery Circumstances ]

[ show orbit diagram ]
Orbital Elements at Epoch 2457000.5 (2014-Dec-09.0) TDB
Reference: JPL 9 (heliocentric ecliptic J2000)
 Element Value Uncertainty (1-sigma)   Units 
e .1407728523774726 4.8321e-08  
a 2.261051012893783 1.4577e-08 AU
q 1.942756412437751 1.1087e-07 AU
i 2.345952106225547 6.1621e-06 deg
node 204.9128135820975 0.00013224 deg
peri 104.2284474072582 0.00013443 deg
M 223.5546737092092 2.481e-05 deg
tp 2457471.173916542888
(2016-Mar-23.67391654)
8.7355e-05 JED
period 1241.835206537785
3.40
1.2009e-05
3.288e-08
d
yr
n .2898935366824346 2.8034e-09 deg/d
Q 2.579345613349814 1.6629e-08 AU
  Orbit Determination Parameters
   # obs. used (total)      830  
   data-arc span      8180 days (22.40 yr)  
   first obs. used      1992-09-02  
   last obs. used      2015-01-25  
   planetary ephem.      DE431  
   SB-pert. ephem.      SB431-BIG16  
   condition code      0  
   fit RMS      .55168  
   data source      ORB  
   producer      Otto Matic  
   solution date      2015-Mar-09 14:30:27  

Additional Information
 Earth MOID = .930809 AU 
 T_jup = 3.605 
[ show covariance matrix ]

Ephemeris | Orbit Diagram | Orbital Elements | Physical Parameters | Discovery Circumstances ]

Physical Parameter Table
Parameter Symbol Value Units Sigma Reference Notes
absolute magnitude H 15.0 mag n/a MPO324423  

12324 Van Rompaey           Discovered 1992 Sept. 2 by E. W. Elst at the European Southern Observatory.
Pierre Van Rompaey (b. 1921) is a Belgian architect and an artist of surreal figurative paintings. His popular work is displayed in private collections at Antwerp.
NOTE: some special characters may not display properly (any characters within {} are an attempt to place the proper accent above a character)
Reference: 20040928/MPCPages.arcLast Updated: 2004-09-28

Alternate Designations
 1992 RS3 = 1998 FF61 
Ephemeris | Orbit Diagram | Orbital Elements | Physical Parameters | Discovery Circumstances ]
ABOUT SSD CREDITS/AWARDS PRIVACY/COPYRIGHT GLOSSARY LINKS
FirstGov 2015-Apr-01 04:32 UT
(server date/time)  
NASA Home Page
Site Manager:   Ryan S. Park
Webmaster  Alan B. Chamberlin